Flag for Indonesia Weather past 2 weeks in Makassar, South Sulawesi, Indonesia

Now
79 °F

Light rain. Scattered clouds.


Feels Like: 83 °F
Forecast: 79 / 84 °F
Wind: 6 mph from North

Location: Ujung Pandang / Hasanuddin

Current Time: Jan 29, 2015 at 12:18:50 PM

Latest Report: Jan 29, 2015 at 11:00 AM


Visibility: 4 mi

Pressure: 29.83 "Hg

Humidity: 94%

Dew point: 77 °F

Location of MakassarLocation

Historic Weather in Makassar — Graph

°F

Makassar temperature yesterday

Maximum temperature yesterday: 84 °F (at 3:30 PM)
Minimum temperature yesterday: 75 °F (at 7:30 AM)
Average temperature yesterday: 78 °F

Past Weeks' High & Low Weather Summary

 TemperatureHumidityPressure
High90 °F (Jan 14, 11:30 AM)100% (Jan 14, 10:00 PM)29.98 "Hg (Jan 14, 10:00 PM)
Low73 °F (Jan 21, 6:00 AM)52% (Jan 21, 1:30 PM)29.74 "Hg (Jan 28, 3:30 PM)
Average80 °F88%29.87 "Hg
* Reported Jan 14 10:00 AM — Jan 29 10:30 AM, Makassar, Weather by CustomWeather, © 2014

Note: Actual official high and low records may vary slightly from our data, if they occured in-between our weather recording intervals... More about our weather records

Advertising

Makassar weather history for previous 24 hours

 ConditionsComfort  
Time TempWeatherWind HumidityBarometerVisibility
10:30 AM
Jan 29
77 °FThunderstorms. Scattered clouds.7 mph100%29.83 "Hg3 mi
10:00 AM75 °FThunderstorms. Scattered clouds.15 mph100%29.83 "Hg3 mi
9:30 AM75 °FThunderstorms. Partly sunny.7 mph100%29.86 "Hg2 mi
9:00 AM75 °FThunderstorms. Partly sunny.5 mph100%29.86 "Hg2 mi
8:30 AM75 °FThunderstorms. Partly sunny.2 mph100%29.89 "Hg2 mi
8:00 AM75 °FThunderstorms. Partly sunny.6 mph100%29.83 "Hg2 mi
7:30 AM75 °FThunderstorms. Partly sunny.5 mph100%29.86 "Hg3 mi
7:00 AM75 °FThunderstorms. Partly sunny.6 mph100%29.83 "Hg3 mi
6:30 AM75 °FThunderstorms. Partly sunny.3 mph100%29.83 "Hg3 mi
6:00 AM75 °FThunderstorms. Passing clouds.3 mph100%29.77 "Hg3 mi
5:30 AM75 °FThunderstorms. Passing clouds.8 mph100%29.80 "Hg3 mi
5:00 AM75 °FThunderstorms. Passing clouds.6 mph100%29.80 "Hg2 mi
4:00 AM77 °FThunderstorms. Passing clouds.7 mph94%29.80 "Hg3 mi
3:30 AM77 °FThunderstorms. Passing clouds.2 mph94%29.77 "Hg5 mi
3:00 AM75 °FThunderstorms. Passing clouds.3 mph100%29.77 "Hg5 mi
2:30 AM75 °FMild.3 mph100%29.77 "HgN/A
2:00 AM75 °FPassing clouds.3 mph100%29.77 "Hg5 mi
1:30 AM75 °FPassing clouds.3 mph100%29.80 "Hg5 mi
1:00 AM75 °FPassing clouds.6 mph100%29.80 "Hg5 mi
12:30 AM77 °FPassing clouds.3 mph94%29.80 "Hg5 mi
12:00 AM77 °FPassing clouds.6 mph94%29.83 "Hg5 mi
11:30 PM
Jan 28
75 °FPassing clouds.7 mph100%29.83 "Hg5 mi
11:00 PM75 °FPassing clouds.2 mph100%29.83 "Hg5 mi
10:30 PM75 °FThunderstorms. Passing clouds.2 mph100%29.83 "Hg4 mi
10:00 PM75 °FThunderstorms. Passing clouds.2 mph100%29.83 "Hg4 mi
9:30 PM75 °FThunderstorms. Passing clouds.3 mph100%29.86 "Hg4 mi
9:00 PM75 °FThunderstorms. Passing clouds.6 mph100%29.86 "Hg5 mi
8:30 PM75 °FPassing clouds.5 mph100%29.83 "Hg5 mi
8:00 PM75 °FPassing clouds.3 mph94%29.83 "Hg4 mi
7:30 PM75 °FStrong thunderstorms. Passing clouds.12 mph94%29.83 "Hg1 mi
7:00 PM81 °FThunderstorms. Passing clouds.7 mph84%29.80 "Hg4 mi
6:30 PM81 °FPassing clouds.8 mph84%29.80 "Hg5 mi
6:00 PM81 °FScattered clouds.10 mph84%29.77 "Hg5 mi
5:30 PM82 °FScattered clouds.7 mph79%29.77 "Hg6 mi
5:00 PM84 °FScattered clouds.7 mph74%29.77 "Hg6 mi
4:30 PM84 °FScattered clouds.5 mph74%29.74 "Hg6 mi
4:00 PM84 °FScattered clouds.2 mph79%29.74 "Hg6 mi
3:30 PM84 °FScattered clouds.2 mph79%29.74 "Hg5 mi
2:00 PM82 °FScattered clouds.5 mph79%29.77 "Hg5 mi
1:30 PM82 °FScattered clouds.3 mph79%29.80 "Hg5 mi
1:00 PM81 °FThunderstorms. Scattered clouds.2 mph79%29.80 "Hg5 mi
12:30 PM81 °FThunderstorms. Partly sunny.5 mph70%29.83 "Hg5 mi
12:00 PM81 °FThunderstorms. Partly sunny.2 mph84%29.83 "Hg4 mi
Weather by CustomWeather, © 2014

See weather overviewHow to use our weather pages